Content
SEND FEEDBACK

Daily
Averages
Monthly
Summary
United States of America

SELBY, SOUTH DAKOTA


Home > North America > United States > South Dakota
Elevation: 1898 feet     Latitude: 45 30N     Longitude: 100 02W

WEATHER
 
SELECT A DAY
Number of Records: 179,841;   Date Range: 1/2/95 - 10/20/14
 
SHARE

PRINT THIS DATA

[ ← Previous Day ]
WEATHER ALMANAC - JANUARY 23, 2013
[ Next Day → ]
[ °C ]   °F
Weather ElementAverageHighLow
Temperature5.8 °F10 °F (2:52 am)-0.9 °F (11:52 pm)
Dewpoint-1.7 °F6.1 °F (2:52 am)-9 °F (11:52 pm)
Humidity71.6 %87 % (3:52 am)58 % (3:52 pm)
Barometer30.44 in30.58 in (8:52 pm)30.21 in (1:52 am)
Wind Speed9.5 mph13.8 mph (10:52 am)
Weather ElementAverage
Visibility10 mi
Wind DirectionSSE (163.9 °)

Weather ElementTotal
Precipitation---
Heating Degree Days60.5 (Base 65)
Averaged from 23 records on January 23, 2013
WEATHER CONDITIONS BREAKOUT
WIND DIRECTION BREAKOUT
WEATHER BY HOUR - JANUARY 23, 2013
[ °C ]   °F
Local TimeTemperatureDewpointHumidityBarometerVisibilityWind DirectionWind SpeedGust SpeedPrecipitationEventsConditions
1:52 AM7.0 °F3.0 °F84 %30.21 in10.0 miNW (310°)6.9 mphClear
2:52 AM10.0 °F6.1 °F84 %30.23 in10.0 miNNW (340°)4.6 mphClear
3:52 AM8.1 °F5.0 °F87 %30.25 in10.0 miCalmClear
4:52 AM6.1 °F3.0 °F87 %30.27 in10.0 miCalmClear
5:52 AM5.0 °F1.0 °F84 %30.29 in10.0 miNNW (330°)4.6 mphClear
6:52 AM8.1 °F3.0 °F80 %30.31 in10.0 miNorth (350°)10.4 mphClear
7:52 AM8.1 °F1.9 °F76 %30.35 in10.0 miNorth (350°)10.4 mphPartly Cloudy
8:52 AM7.0 °F1.0 °F77 %30.38 in10.0 miNNW (340°)10.4 mphClear
9:52 AM8.1 °F1.0 °F73 %30.41 in10.0 miNorth (350°)10.4 mphClear
10:52 AM10.0 °F1.0 °F67 %30.45 in10.0 miNorth (350°)13.8 mphClear
11:52 AM10.0 °F1.0 °F67 %30.48 in10.0 miNorth (350°)10.4 mphClear
12:52 PM10.0 °F0.0 °F64 %30.47 in10.0 miNNE (20°)12.7 mphClear
1:52 PM9.0 °F-2.0 °F61 %30.49 in10.0 miNorth (10°)12.7 mphClear
2:52 PM7.0 °F-4.0 °F61 %30.51 in10.0 miNorth (10°)11.5 mphClear
3:52 PM7.0 °F-5.1 °F58 %30.53 in10.0 miNNE (20°)9.2 mphClear
4:52 PM6.1 °F-4.0 °F63 %30.54 in10.0 miNNE (20°)10.4 mphOvercast
5:52 PM3.9 °F-5.1 °F66 %30.56 in10.0 miENE (70°)6.9 mphOvercast
6:52 PM3.0 °F-6.0 °F66 %30.56 in10.0 miENE (70°)10.4 mphPartly Cloudy
7:52 PM1.9 °F-7.1 °F66 %30.57 in10.0 miEast (80°)11.5 mphClear
8:52 PM0.0 °F-8.0 °F69 %30.58 in10.0 miEast (90°)11.5 mphClear
9:52 PM0.0 °F-8.0 °F69 %30.58 in10.0 miEast (90°)12.7 mphClear
10:52 PM0.0 °F-8.0 °F69 %30.55 in10.0 miEast (100°)13.8 mphClear
11:52 PM-0.9 °F-9.0 °F69 %30.56 in10.0 miESE (120°)13.8 mphClear
Hourly data recorded from KMBG, located miles away from Selby, South Dakota







STORIES FROM OUR PARTNERS